Weather History for Kendall, FL

Change the Weather History Date:

Wednesday, April 24, 2013

  Actual Average Record
Temperature  
Mean Temperature 75 °F -  
Max Temperature 84 °F 83 °F 90 °F (1991)
Min Temperature 66 °F 60 °F 55 °F (2005)
Cooling Degree Days 10    
Growing Degree Days 25 (Base 50)    
Moisture  
Dew Point 62 °F    
Average Humidity 64    
Maximum Humidity 79    
Minimum Humidity 51    
Precipitation  
Precipitation 0.00 in - - ()
Sea Level Pressure  
Sea Level Pressure 30.09 in    
Wind  
Wind Speed 8 mph (East)    
Max Wind Speed 15 mph    
Max Gust Speed 22 mph    
Visibility 10 miles    
Events      
Averages and records for this station are not official NWS values.
T = Trace of Precipitation, MM = Missing Value Source: NWS Daily Summary

Daily Weather History Graph

Daily Weather History Graph

Search for Another Location

Airport:

Trip Planner

Search our weather history database for the weather conditions in past years. The results will help you decide how hot, cold, wet, or windy it might be!

Date:

Astronomy

Apr. 24, 2013 Rise Set
Actual Time 6:50 AM EDT 7:49 PM EDT
Civil Twilight 6:26 AM EDT 8:13 PM EDT
Nautical Twilight 5:58 AM EDT 8:41 PM EDT
Astronomical Twilight 5:29 AM EDT 9:10 PM EDT
Moon 6:54 PM EDT (4/24) 5:46 AM EDT (4/24)
Length of Visible Light 13h 46m
Length of Day
12h 58m
Waxing Gibbous, 98% of the Moon is Illuminated
Apr 24
Waxing Gibbous
Apr 25
Full
May 2
Last Quarter
May 9
New
May 18
First Quarter

Hourly Weather History & Observations

Time (EDT) Temp. Heat Index Dew Point Humidity Pressure Visibility Wind Dir Wind Speed Gust Speed Precip Events Conditions
12:53 AM 72.0 °F - 60.1 °F 66% 30.08 in 10.0 mi ENE 8.1 mph - N/A   Clear
1:53 AM 71.1 °F - 60.1 °F 68% 30.06 in 10.0 mi NE 4.6 mph - N/A   Scattered Clouds
2:53 AM 71.1 °F - 60.1 °F 68% 30.06 in 10.0 mi ENE 5.8 mph - N/A   Partly Cloudy
3:53 AM 71.1 °F - 60.1 °F 68% 30.05 in 10.0 mi ENE 4.6 mph - N/A   Scattered Clouds
4:53 AM 70.0 °F - 60.1 °F 71% 30.05 in 10.0 mi ENE 5.8 mph - N/A   Partly Cloudy
5:53 AM 66.2 °F - 59.0 °F 78% 30.06 in 10.0 mi ENE 4.6 mph - N/A   Clear
6:53 AM 66.9 °F - 60.1 °F 79% 30.07 in 10.0 mi NE 4.6 mph - N/A   Clear
7:53 AM 70.0 °F - 63.0 °F 78% 30.10 in 10.0 mi Calm Calm - N/A   Clear
8:53 AM 77.0 °F - 63.0 °F 62% 30.11 in 10.0 mi East 12.7 mph - N/A   Partly Cloudy
9:53 AM 79.0 °F - 62.1 °F 56% 30.12 in 10.0 mi East 15.0 mph 19.6 mph N/A   Mostly Cloudy
10:53 AM 81.0 °F 82.2 °F 63.0 °F 54% 30.14 in 10.0 mi East 15.0 mph 19.6 mph N/A   Scattered Clouds
11:53 AM 82.9 °F 84.4 °F 64.0 °F 53% 30.12 in 10.0 mi ESE 15.0 mph 21.9 mph N/A   Scattered Clouds
12:53 PM 82.0 °F 83.4 °F 64.0 °F 54% 30.11 in 10.0 mi East 11.5 mph 20.7 mph N/A   Scattered Clouds
1:53 PM 82.9 °F 84.0 °F 63.0 °F 51% 30.10 in 10.0 mi ESE 9.2 mph 17.3 mph N/A   Scattered Clouds
2:53 PM 84.0 °F 85.8 °F 64.9 °F 53% 30.08 in 10.0 mi ESE 10.4 mph 18.4 mph N/A   Scattered Clouds
3:53 PM 82.0 °F 83.4 °F 64.0 °F 54% 30.06 in 10.0 mi ESE 11.5 mph - N/A   Partly Cloudy
4:53 PM 82.0 °F 83.1 °F 63.0 °F 52% 30.06 in 10.0 mi ESE 9.2 mph - N/A   Partly Cloudy
5:53 PM 81.0 °F 82.5 °F 64.0 °F 56% 30.07 in 10.0 mi East 11.5 mph - N/A   Clear
6:53 PM 79.0 °F - 61.0 °F 54% 30.08 in 10.0 mi East 11.5 mph - N/A   Clear
7:53 PM 75.9 °F - 63.0 °F 64% 30.10 in 10.0 mi East 11.5 mph - N/A   Clear
8:53 PM 73.9 °F - 64.0 °F 71% 30.11 in 10.0 mi East 10.4 mph - N/A   Clear
9:53 PM 73.0 °F - 63.0 °F 71% 30.13 in 10.0 mi East 9.2 mph - N/A   Clear
10:53 PM 72.0 °F - 63.0 °F 73% 30.14 in 10.0 mi East 8.1 mph - N/A   Clear
11:53 PM 72.0 °F - 63.0 °F 73% 30.14 in 10.0 mi East 8.1 mph - N/A   Clear